SWA4244 KSJC-KLAS

Flight info

Callsign SWA4244
Flight time 1h 6m
Altitude 37000
Route SPTNS1 TECKY NTELL Q174 FLCHR COKTL4
Aircraft B737/M-SADE2E3GIJ4RWZ/LB1D1

Departure

Time 2026-05-05 05:00
Airport Norman Y. Mineta San Jose International Airport (KSJC)

Arrival

Time 2026-05-05 06:06
Airport Harry Reid International Airport (KLAS)
Time Latitude Longitude Altitude Speed Heading
2026-05-05 04:41 37.36465 -121.92497 56 ft 0 kts 49°
2026-05-05 04:49 37.36452 -121.92515 53 ft 2 kts 58°
2026-05-05 04:49 37.36442 -121.92539 60 ft 4 kts 72°
2026-05-05 04:50 37.36438 -121.92571 55 ft 4 kts 97°
2026-05-05 04:50 37.36445 -121.92602 52 ft 4 kts 127°
2026-05-05 04:50 37.36454 -121.92615 52 ft 1 kts 139°
2026-05-05 04:50 37.36455 -121.92616 52 ft 0 kts 139°
2026-05-05 04:53 37.36454 -121.92615 61 ft 1 kts 139°
2026-05-05 04:53 37.36436 -121.92595 56 ft 5 kts 139°
2026-05-05 04:53 37.36397 -121.92552 53 ft 9 kts 139°
2026-05-05 04:53 37.36350 -121.92502 56 ft 6 kts 140°
2026-05-05 04:54 37.36313 -121.92460 58 ft 10 kts 138°
2026-05-05 04:54 37.36254 -121.92394 54 ft 12 kts 139°
2026-05-05 04:54 37.36191 -121.92333 56 ft 11 kts 156°
2026-05-05 04:54 37.36110 -121.92319 57 ft 13 kts 164°
2026-05-05 04:55 37.36033 -121.92251 56 ft 14 kts 139°
2026-05-05 04:55 37.35953 -121.92164 59 ft 15 kts 139°
2026-05-05 04:55 37.35874 -121.92077 57 ft 15 kts 139°
2026-05-05 04:55 37.35843 -121.92043 62 ft 1 kts 138°
2026-05-05 04:56 37.35842 -121.92041 62 ft 0 kts 138°
2026-05-05 04:57 37.35841 -121.92040 56 ft 1 kts 138°
2026-05-05 04:57 37.35823 -121.92019 60 ft 8 kts 138°
2026-05-05 04:57 37.35760 -121.91951 57 ft 15 kts 139°
2026-05-05 04:58 37.35672 -121.91854 57 ft 18 kts 138°
2026-05-05 04:58 37.35579 -121.91752 60 ft 17 kts 139°
2026-05-05 04:58 37.35490 -121.91655 55 ft 17 kts 139°
2026-05-05 04:58 37.35403 -121.91561 61 ft 16 kts 139°
2026-05-05 04:59 37.35324 -121.91472 52 ft 7 kts 140°
2026-05-05 04:59 37.35278 -121.91477 60 ft 7 kts 218°
2026-05-05 04:59 37.35255 -121.91536 60 ft 9 kts 272°
2026-05-05 04:59 37.35309 -121.91616 58 ft 27 kts 318°
2026-05-05 05:00 37.35659 -121.92000 60 ft 104 kts 319°
2026-05-05 05:00 37.36339 -121.92758 222 ft 147 kts 319°
2026-05-05 05:00 37.37096 -121.93598 1020 ft 147 kts 318°
2026-05-05 05:00 37.37939 -121.94556 1400 ft 181 kts 316°
2026-05-05 05:01 37.38961 -121.95691 1792 ft 211 kts 317°
2026-05-05 05:01 37.40155 -121.96952 2272 ft 230 kts 325°
2026-05-05 05:01 37.41694 -121.97510 3125 ft 243 kts
2026-05-05 05:01 37.43313 -121.96778 3943 ft 255 kts 40°
2026-05-05 05:02 37.44370 -121.94989 4511 ft 258 kts 74°
2026-05-05 05:02 37.44435 -121.92841 4796 ft 242 kts 110°
2026-05-05 05:02 37.43648 -121.90997 5105 ft 255 kts 130°
2026-05-05 05:02 37.42367 -121.89394 5912 ft 264 kts 140°
2026-05-05 05:03 37.40975 -121.87810 6858 ft 270 kts 139°
2026-05-05 05:03 37.39583 -121.86175 7764 ft 276 kts 137°
2026-05-05 05:03 37.38175 -121.84517 8828 ft 277 kts 137°
2026-05-05 05:03 37.36725 -121.82897 9641 ft 287 kts 138°
2026-05-05 05:04 37.35189 -121.81243 10410 ft 298 kts 138°
2026-05-05 05:04 37.33537 -121.79479 10724 ft 323 kts 139°
2026-05-05 05:04 37.31778 -121.77585 11157 ft 342 kts 137°
2026-05-05 05:04 37.29976 -121.75553 11870 ft 350 kts 136°
2026-05-05 05:05 37.28159 -121.73477 12721 ft 356 kts 136°
2026-05-05 05:05 37.26316 -121.71374 13543 ft 361 kts 136°
2026-05-05 05:05 37.24458 -121.69249 14338 ft 367 kts 136°
2026-05-05 05:05 37.22547 -121.67086 15210 ft 370 kts 135°
2026-05-05 05:06 37.20631 -121.64923 16219 ft 369 kts 135°
2026-05-05 05:06 37.18741 -121.62778 17120 ft 372 kts 135°
2026-05-05 05:06 37.16791 -121.60583 17819 ft 380 kts 134°
2026-05-05 05:06 37.14803 -121.58348 18576 ft 384 kts 134°
2026-05-05 05:07 37.12805 -121.56107 19335 ft 387 kts 134°
2026-05-05 05:07 37.10787 -121.53837 20059 ft 391 kts 134°
2026-05-05 05:07 37.08754 -121.51546 20744 ft 394 kts 133°
2026-05-05 05:07 37.07040 -121.48954 21388 ft 390 kts 115°
2026-05-05 05:08 37.06058 -121.45825 22103 ft 384 kts 98°
2026-05-05 05:08 37.05657 -121.42515 22839 ft 384 kts 94°
2026-05-05 05:08 37.05347 -121.39173 23502 ft 388 kts 92°
2026-05-05 05:08 37.05053 -121.35799 24099 ft 391 kts 92°
2026-05-05 05:09 37.04757 -121.32408 24711 ft 392 kts 92°
2026-05-05 05:09 37.04453 -121.29053 25296 ft 394 kts 92°
2026-05-05 05:09 37.04131 -121.25598 25883 ft 395 kts 92°
2026-05-05 05:09 37.03809 -121.22212 26416 ft 398 kts 92°
2026-05-05 05:10 37.03475 -121.18755 26902 ft 402 kts 92°
2026-05-05 05:10 37.03135 -121.15274 27435 ft 403 kts 92°
2026-05-05 05:10 37.02791 -121.11784 27986 ft 405 kts 92°
2026-05-05 05:10 37.02442 -121.08268 28507 ft 407 kts 92°
2026-05-05 05:11 37.02092 -121.04744 28980 ft 409 kts 92°
2026-05-05 05:11 37.01743 -121.01242 29498 ft 410 kts 91°
2026-05-05 05:11 37.01387 -120.97694 30096 ft 409 kts 91°
2026-05-05 05:11 37.01031 -120.94150 30413 ft 413 kts 91°
2026-05-05 05:12 37.00671 -120.90552 30644 ft 418 kts 92°
2026-05-05 05:12 37.00306 -120.86918 30945 ft 421 kts 92°
2026-05-05 05:12 36.99941 -120.83312 31301 ft 423 kts 92°
2026-05-05 05:12 36.99568 -120.79641 31657 ft 425 kts 92°
2026-05-05 05:13 36.99193 -120.75962 31962 ft 428 kts 93°
2026-05-05 05:13 36.98815 -120.72260 32264 ft 430 kts 93°
2026-05-05 05:13 36.98432 -120.68529 32600 ft 432 kts 94°
2026-05-05 05:13 36.98053 -120.64842 32915 ft 433 kts 94°
2026-05-05 05:14 36.97666 -120.61087 33210 ft 436 kts 94°
2026-05-05 05:14 36.97277 -120.57324 33530 ft 437 kts 94°
2026-05-05 05:14 36.96884 -120.53541 33839 ft 439 kts 94°
2026-05-05 05:14 36.96489 -120.49741 34106 ft 441 kts 95°
2026-05-05 05:15 36.96090 -120.45922 34314 ft 444 kts 95°
2026-05-05 05:15 36.95686 -120.42064 34505 ft 447 kts 95°
2026-05-05 05:15 36.95285 -120.38245 34776 ft 448 kts 96°
2026-05-05 05:15 36.94876 -120.34366 34977 ft 450 kts 96°
2026-05-05 05:16 36.94464 -120.30470 35223 ft 452 kts 96°
2026-05-05 05:16 36.94050 -120.26570 35509 ft 452 kts 96°
2026-05-05 05:16 36.93636 -120.22675 35770 ft 453 kts 96°
2026-05-05 05:16 36.93219 -120.18767 35982 ft 454 kts 97°
2026-05-05 05:17 36.92804 -120.14890 36223 ft 455 kts 97°
2026-05-05 05:17 36.92382 -120.10962 36476 ft 455 kts 97°
2026-05-05 05:17 36.91957 -120.07019 36662 ft 458 kts 97°
2026-05-05 05:17 36.91531 -120.03068 36881 ft 459 kts 98°
2026-05-05 05:18 36.91102 -119.99105 37033 ft 460 kts 98°
2026-05-05 05:18 36.90539 -119.91178 37022 ft 462 kts 87°
2026-05-05 05:19 36.91753 -119.83262 37012 ft 465 kts 70°
2026-05-05 05:19 36.94211 -119.75741 37018 ft 468 kts 68°
2026-05-05 05:20 36.96748 -119.68259 37024 ft 470 kts 68°
2026-05-05 05:20 36.99264 -119.60674 37023 ft 472 kts 68°
2026-05-05 05:21 37.01749 -119.53051 36999 ft 472 kts 68°
2026-05-05 05:21 37.04197 -119.45494 36991 ft 470 kts 68°
2026-05-05 05:22 37.06655 -119.37890 36996 ft 469 kts 68°
2026-05-05 05:22 37.09102 -119.30306 36996 ft 468 kts 69°
2026-05-05 05:23 37.11525 -119.22776 36975 ft 467 kts 69°
2026-05-05 05:23 37.13952 -119.15216 36991 ft 467 kts 69°
2026-05-05 05:24 37.16366 -119.07676 36983 ft 467 kts 69°
2026-05-05 05:24 37.18787 -119.00094 36962 ft 468 kts 69°
2026-05-05 05:25 37.21210 -118.92485 36949 ft 469 kts 69°
2026-05-05 05:25 37.23620 -118.84895 36949 ft 471 kts 69°
2026-05-05 05:26 37.26051 -118.77222 36911 ft 474 kts 69°
2026-05-05 05:26 37.28003 -118.69381 36921 ft 473 kts 83°
2026-05-05 05:27 37.28662 -118.61161 36920 ft 474 kts 87°
2026-05-05 05:27 37.29395 -118.50132 36951 ft 476 kts 87°
2026-05-05 05:28 37.29997 -118.41815 36969 ft 478 kts 87°
2026-05-05 05:28 37.30620 -118.33484 36958 ft 479 kts 88°
2026-05-05 05:29 37.31238 -118.25182 36973 ft 480 kts 88°
2026-05-05 05:29 37.31855 -118.16788 36931 ft 482 kts 88°
2026-05-05 05:30 37.32466 -118.08383 36823 ft 483 kts 88°
2026-05-05 05:30 37.33067 -118.00015 36815 ft 483 kts 88°
2026-05-05 05:31 37.33668 -117.91571 36816 ft 483 kts 88°
2026-05-05 05:31 37.34258 -117.83201 36817 ft 484 kts 88°
2026-05-05 05:32 37.34847 -117.74760 36813 ft 484 kts 88°
2026-05-05 05:32 37.35427 -117.66367 36802 ft 484 kts 88°
2026-05-05 05:33 37.36008 -117.57888 36195 ft 490 kts 88°
2026-05-05 05:33 37.36296 -117.53621 35580 ft 487 kts 88°
2026-05-05 05:33 37.36583 -117.49365 34851 ft 487 kts 87°
2026-05-05 05:34 37.36868 -117.45120 34090 ft 487 kts 87°
2026-05-05 05:34 37.37148 -117.40924 33209 ft 488 kts 87°
2026-05-05 05:34 37.37431 -117.36677 32339 ft 486 kts 86°
2026-05-05 05:34 37.37688 -117.32459 31745 ft 478 kts 90°
2026-05-05 05:35 37.37398 -117.28363 31172 ft 467 kts 105°
2026-05-05 05:35 37.36262 -117.24601 30939 ft 451 kts 118°
2026-05-05 05:35 37.34608 -117.21389 30804 ft 435 kts 132°
2026-05-05 05:35 37.32597 -117.18645 30811 ft 417 kts 133°
2026-05-05 05:36 37.30658 -117.16013 30777 ft 402 kts 134°
2026-05-05 05:36 37.28799 -117.13466 30781 ft 387 kts 134°
2026-05-05 05:36 37.27016 -117.11003 30780 ft 374 kts 134°
2026-05-05 05:36 37.25301 -117.08621 30781 ft 361 kts 134°
2026-05-05 05:37 37.23645 -117.06317 30788 ft 349 kts 134°
2026-05-05 05:37 37.22067 -117.04118 30773 ft 337 kts 135°
2026-05-05 05:37 37.20525 -117.01969 30781 ft 324 kts 135°
2026-05-05 05:37 37.19034 -116.99895 30758 ft 314 kts 135°
2026-05-05 05:38 37.17571 -116.97864 30523 ft 312 kts 135°
2026-05-05 05:38 37.16114 -116.95843 30158 ft 313 kts 135°
2026-05-05 05:38 37.14644 -116.93804 29726 ft 316 kts 134°
2026-05-05 05:38 37.13160 -116.91746 29176 ft 320 kts 134°
2026-05-05 05:39 37.11677 -116.89691 28571 ft 325 kts 134°
2026-05-05 05:39 37.10124 -116.87567 27776 ft 334 kts 137°
2026-05-05 05:39 37.08263 -116.85709 26930 ft 345 kts 148°
2026-05-05 05:39 37.06264 -116.84036 26732 ft 352 kts 150°
2026-05-05 05:40 37.04150 -116.82290 26509 ft 376 kts 149°
2026-05-05 05:40 37.01928 -116.80443 26272 ft 399 kts 149°
2026-05-05 05:40 36.99585 -116.78471 26024 ft 407 kts 149°
2026-05-05 05:40 36.97239 -116.76476 25770 ft 405 kts 148°
2026-05-05 05:41 36.94922 -116.74494 25438 ft 400 kts 148°
2026-05-05 05:41 36.92641 -116.72542 25138 ft 393 kts 148°
2026-05-05 05:41 36.90418 -116.70642 24898 ft 394 kts 148°
2026-05-05 05:41 36.88139 -116.68696 24646 ft 398 kts 149°
2026-05-05 05:42 36.85843 -116.66737 24424 ft 400 kts 149°
2026-05-05 05:42 36.83554 -116.64781 24175 ft 397 kts 149°
2026-05-05 05:42 36.81269 -116.62834 23936 ft 395 kts 149°
2026-05-05 05:42 36.79021 -116.60937 23712 ft 394 kts 149°
2026-05-05 05:43 36.76763 -116.59008 23486 ft 392 kts 149°
2026-05-05 05:43 36.74511 -116.57082 23231 ft 391 kts 149°
2026-05-05 05:43 36.72274 -116.55168 22929 ft 387 kts 150°
2026-05-05 05:43 36.70059 -116.53283 22642 ft 383 kts 150°
2026-05-05 05:44 36.67865 -116.51422 22372 ft 380 kts 150°
2026-05-05 05:44 36.65716 -116.49557 22104 ft 381 kts 147°
2026-05-05 05:44 36.63727 -116.47295 21827 ft 385 kts 137°
2026-05-05 05:44 36.61970 -116.44821 21578 ft 385 kts 136°
2026-05-05 05:45 36.60222 -116.42300 21320 ft 385 kts 135°
2026-05-05 05:45 36.58469 -116.39770 21059 ft 384 kts 135°
2026-05-05 05:45 36.56715 -116.37256 20864 ft 383 kts 135°
2026-05-05 05:45 36.54954 -116.34753 20818 ft 383 kts 136°
2026-05-05 05:46 36.53215 -116.32291 20804 ft 382 kts 136°
2026-05-05 05:46 36.51458 -116.29809 20798 ft 382 kts 136°
2026-05-05 05:46 36.49700 -116.27331 20799 ft 382 kts 136°
2026-05-05 05:46 36.47938 -116.24850 20791 ft 382 kts 136°
2026-05-05 05:47 36.46183 -116.22380 20803 ft 381 kts 136°
2026-05-05 05:47 36.44427 -116.19911 20628 ft 379 kts 136°
2026-05-05 05:47 36.42683 -116.17460 20291 ft 376 kts 136°
2026-05-05 05:47 36.40982 -116.15072 19992 ft 372 kts 136°
2026-05-05 05:48 36.39271 -116.12671 19722 ft 369 kts 136°
2026-05-05 05:48 36.37568 -116.10282 19427 ft 368 kts 136°
2026-05-05 05:48 36.35869 -116.07904 19122 ft 367 kts 136°
2026-05-05 05:48 36.34174 -116.05532 18827 ft 366 kts 136°
2026-05-05 05:49 36.32369 -116.03371 18545 ft 358 kts 141°
2026-05-05 05:49 36.30754 -116.01031 18292 ft 364 kts 131°
2026-05-05 05:49 36.29202 -115.98545 17973 ft 363 kts 134°
2026-05-05 05:49 36.27563 -115.96201 17640 ft 355 kts 136°
2026-05-05 05:50 36.25935 -115.93957 17332 ft 346 kts 136°
2026-05-05 05:50 36.24355 -115.91755 17070 ft 337 kts 134°
2026-05-05 05:50 36.22906 -115.89502 16806 ft 330 kts 132°
2026-05-05 05:50 36.21524 -115.87265 16643 ft 324 kts 132°
2026-05-05 05:51 36.20166 -115.85069 16399 ft 325 kts 132°
2026-05-05 05:51 36.18783 -115.82850 16137 ft 324 kts 133°
2026-05-05 05:51 36.17398 -115.80649 15887 ft 324 kts 133°
2026-05-05 05:51 36.16010 -115.78454 15652 ft 322 kts 133°
2026-05-05 05:52 36.14642 -115.76290 15378 ft 317 kts 132°
2026-05-05 05:52 36.13464 -115.73975 15113 ft 320 kts 117°
2026-05-05 05:52 36.12640 -115.71406 14886 ft 321 kts 114°
2026-05-05 05:52 36.11875 -115.68832 14623 ft 322 kts 114°
2026-05-05 05:53 36.11103 -115.66224 14366 ft 322 kts 113°
2026-05-05 05:53 36.10327 -115.63626 14086 ft 322 kts 114°
2026-05-05 05:53 36.09543 -115.61037 13833 ft 319 kts 114°
2026-05-05 05:53 36.08766 -115.58490 13563 ft 313 kts 113°
2026-05-05 05:54 36.08008 -115.56019 13289 ft 310 kts 114°
2026-05-05 05:54 36.07238 -115.53524 13041 ft 309 kts 114°
2026-05-05 05:54 36.06472 -115.51043 12786 ft 308 kts 114°
2026-05-05 05:54 36.05707 -115.48568 12536 ft 308 kts 115°
2026-05-05 05:55 36.04941 -115.46096 12274 ft 307 kts 114°
2026-05-05 05:55 36.04187 -115.43666 12036 ft 305 kts 115°
2026-05-05 05:55 36.03426 -115.41215 11737 ft 307 kts 114°
2026-05-05 05:55 36.02660 -115.38750 11409 ft 304 kts 114°
2026-05-05 05:56 36.01911 -115.36333 11112 ft 298 kts 114°
2026-05-05 05:56 36.01442 -115.33845 10862 ft 297 kts 98°
2026-05-05 05:56 36.01323 -115.31336 10655 ft 295 kts 96°
2026-05-05 05:56 36.01235 -115.28808 10487 ft 292 kts 96°
2026-05-05 05:57 36.01142 -115.26308 10282 ft 290 kts 96°
2026-05-05 05:57 36.01040 -115.23847 10085 ft 283 kts 97°
2026-05-05 05:57 36.00932 -115.21451 9886 ft 276 kts 97°
2026-05-05 05:57 36.00821 -115.19103 9684 ft 272 kts 97°
2026-05-05 05:58 36.00707 -115.16798 9483 ft 265 kts 97°
2026-05-05 05:58 36.00597 -115.14589 9295 ft 258 kts 97°
2026-05-05 05:58 36.00487 -115.12407 9111 ft 250 kts 97°
2026-05-05 05:58 36.00381 -115.10290 8916 ft 244 kts 98°
2026-05-05 05:59 36.00275 -115.08222 8702 ft 239 kts 97°
2026-05-05 05:59 36.00171 -115.06190 8493 ft 235 kts 98°
2026-05-05 05:59 36.00066 -115.04164 8296 ft 236 kts 98°
2026-05-05 05:59 35.99961 -115.02147 8101 ft 239 kts 98°
2026-05-05 06:00 35.99900 -115.00081 7762 ft 241 kts 94°
2026-05-05 06:00 35.99888 -114.97997 7460 ft 245 kts 94°
2026-05-05 06:00 35.99879 -114.95879 7157 ft 247 kts 93°
2026-05-05 06:00 35.99939 -114.93770 6838 ft 250 kts 81°
2026-05-05 06:01 36.00724 -114.91864 6541 ft 251 kts 46°
2026-05-05 06:01 36.02079 -114.90571 6234 ft 241 kts 29°
2026-05-05 06:01 36.03641 -114.90078 5894 ft 227 kts 353°
2026-05-05 06:01 36.05114 -114.90532 5607 ft 212 kts 332°
2026-05-05 06:02 36.06349 -114.91396 5342 ft 204 kts 319°
2026-05-05 06:02 36.07126 -114.92787 5134 ft 196 kts 277°
2026-05-05 06:02 36.07268 -114.94453 4900 ft 195 kts 273°
2026-05-05 06:02 36.07393 -114.96091 4669 ft 187 kts 271°
2026-05-05 06:03 36.07405 -114.97673 4445 ft 182 kts 267°
2026-05-05 06:03 36.07381 -114.99240 4196 ft 183 kts 266°
2026-05-05 06:03 36.07383 -115.00782 3977 ft 178 kts 268°
2026-05-05 06:03 36.07383 -115.02254 3756 ft 163 kts 268°
2026-05-05 06:04 36.07384 -115.03581 3593 ft 143 kts 268°
2026-05-05 06:04 36.07377 -115.04748 3402 ft 129 kts 268°
2026-05-05 06:04 36.07379 -115.05830 3176 ft 120 kts 268°
2026-05-05 06:04 36.07370 -115.06905 3014 ft 129 kts 267°
2026-05-05 06:05 36.07378 -115.08052 2839 ft 130 kts 265°
2026-05-05 06:05 36.07382 -115.09160 2609 ft 136 kts 262°
2026-05-05 06:05 36.07375 -115.10309 2481 ft 131 kts 265°
2026-05-05 06:05 36.07373 -115.11391 2309 ft 121 kts 263°
2026-05-05 06:06 36.07368 -115.12489 2117 ft 129 kts 266°
2026-05-05 06:06 36.07363 -115.13529 2072 ft 108 kts 268°
2026-05-05 06:06 36.07366 -115.14185 2084 ft 44 kts 271°
2026-05-05 06:06 36.07389 -115.14392 2089 ft 19 kts 290°
2026-05-05 06:07 36.07449 -115.14535 2093 ft 18 kts 298°
2026-05-05 06:07 36.07516 -115.14642 2097 ft 13 kts 327°
2026-05-05 06:07 36.07605 -115.14657 2101 ft 13 kts
2026-05-05 06:07 36.07706 -115.14661 2099 ft 17 kts 354°
2026-05-05 06:08 36.07828 -115.14717 2096 ft 19 kts 342°
2026-05-05 06:08 36.07953 -115.14762 2096 ft 18 kts 336°
2026-05-05 06:08 36.08067 -115.14828 2096 ft 18 kts 335°
2026-05-05 06:08 36.08175 -115.14891 2096 ft 14 kts 333°
2026-05-05 06:09 36.08218 -115.14953 2096 ft 9 kts 294°
2026-05-05 06:09 36.08246 -115.15014 2096 ft 6 kts 301°
2026-05-05 06:09 36.08253 -115.15029 2096 ft 0 kts 301°